Location: Rounton
(54.4000°N, 1.3500°W)
Time: 21:24:02
(UTC+01:00)

YAOGAN 20A - Pass Details

Date: 05 July 2022
Orbit: 891 x 1288 km, 63.4° (Epoch: 18 August)

Event Time Altitude Azimuth Distance (km) Brightness Sun altitude
Rises 22:29:26 0° 302° (WNW) 3,732 9.5 -5.5°
Reaches altitude 10° 22:32:02 10° 307° (NW) 2,835 8.9 -5.7°
Maximum altitude 22:38:36 52° 24° (NNE) 1,359 5.9 -6.3°
Drops below altitude 10° 22:45:49 10° 99° (E) 3,112 7.1 -6.9°
Sets 22:48:47 0° 105° (ESE) 4,126 7.7 -7.1°
